K7FLA Weather Reports


time (UTC)temp
C
wind
direction
speed
KPH
gust
KPH
rain 1hr
cm
rain 24hr
cm
rain mn
cm
humidity
%
barometer
mb
20260507085442 11 163 1.6 3.2 0.00 0.00 0.00 80 1097.6
20260507084938 11 171 0.0 0.0 0.00 0.00 0.00 82 1097.8
20260507084435 12 208 1.6 4.8 0.00 0.00 0.00 81 1097.7
20260507083932 11 172 0.0 0.0 0.00 0.00 0.00 78 1097.8
20260507083429 11 172 0.0 0.0 0.00 0.00 0.00 78 1097.8
20260507082925 11 166 0.0 1.6 0.00 0.00 0.00 78 1097.9
20260507082421 11 161 0.0 0.0 0.00 0.00 0.00 79 1097.7
20260507081918 12 158 0.0 3.2 0.00 0.00 0.00 75 1097.7
20260507081414 12 158 0.0 3.2 0.00 0.00 0.00 75 1097.7
20260507080911 12 166 0.0 0.0 0.00 0.00 0.00 75 1097.8
20260507080407 12 185 0.0 0.0 0.00 0.00 0.00 74 1098.0
20260507075903 12 185 0.0 1.6 0.00 0.00 0.00 75 1097.8
20260507075359 12 178 0.0 1.6 0.00 0.00 0.00 76 1097.7
20260507074855 12 214 1.6 3.2 0.00 0.00 0.00 76 1097.7
20260507074353 12 201 1.6 3.2 0.00 0.00 0.00 76 1098.0
20260507073850 12 218 1.6 3.2 0.00 0.00 0.00 76 1097.9
20260507073346 12 143 1.6 1.6 0.00 0.00 0.00 77 1097.9
20260507072844 12 160 1.6 3.2 0.00 0.00 0.00 77 1098.0
20260507072341 13 188 3.2 3.2 0.00 0.00 0.00 76 1097.9
20260507071838 13 189 1.6 3.2 0.00 0.00 0.00 75 1098.2
20260507071336 12 176 0.0 1.6 0.00 0.00 0.00 76 1098.1
20260507070832 12 175 0.0 1.6 0.00 0.00 0.00 76 1098.1
20260507070329 13 166 1.6 3.2 0.00 0.00 0.00 72 1098.0
20260507065826 13 160 1.6 3.2 0.00 0.00 0.00 73 1098.2
20260507065322 13 178 1.6 3.2 0.00 0.00 0.00 73 1098.4
20260507064820 13 150 3.2 4.8 0.00 0.00 0.00 71 1098.2
20260507064319 14 209 0.0 3.2 0.00 0.00 0.00 72 1098.2
20260507063816 14 289 4.8 4.8 0.00 0.00 0.00 71 1098.3
20260507063313 14 243 3.2 4.8 0.00 0.00 0.00 70 1098.3
20260507062809 14 238 1.6 3.2 0.00 0.00 0.00 71 1098.3
20260507062306 14 223 1.6 3.2 0.00 0.00 0.00 70 1098.4
20260507061804 14 245 3.2 3.2 0.00 0.00 0.00 69 1098.2
20260507061302 14 220 1.6 3.2 0.00 0.00 0.00 69 1098.2
20260507060800 14 234 1.6 3.2 0.00 0.00 0.00 69 1098.3
20260507060256 15 228 1.6 3.2 0.00 0.00 0.00 69 1098.3
20260507055753 15 223 3.2 4.8 0.00 0.00 0.00 70 1098.2
20260507055248 15 207 1.6 3.2 0.00 0.00 0.00 70 1098.4
20260507054744 15 199 3.2 3.2 0.00 0.00 0.00 69 1098.2
20260507054241 15 223 1.6 3.2 0.00 0.00 0.00 70 1098.3
20260507053739 15 228 3.2 4.8 0.00 0.00 0.00 69 1098.3
20260507053236 15 193 1.6 3.2 0.00 0.00 0.00 70 1098.3
20260507052735 15 217 1.6 3.2 0.00 0.00 0.00 68 1098.2
20260507052231 15 180 0.0 3.2 0.00 0.00 0.00 67 1098.4
20260507051729 15 236 3.2 3.2 0.00 0.00 0.00 67 1098.1
20260507051226 15 216 0.0 1.6 0.00 0.00 0.00 67 1098.4
20260507050722 15 235 1.6 3.2 0.00 0.00 0.00 67 1098.2
20260507050220 15 210 3.2 3.2 0.00 0.00 0.00 67 1098.4
20260507045716 15 185 0.0 0.0 0.00 0.00 0.00 67 1098.3
20260507045212 15 212 1.6 3.2 0.00 0.00 0.00 67 1098.5
20260507044710 15 214 1.6 3.2 0.00 0.00 0.00 67 1098.4
20260507044206 15 193 0.0 3.2 0.00 0.00 0.00 66 1098.3
20260507043702 16 164 0.0 3.2 0.00 0.00 0.00 66 1098.1
20260507043159 16 209 1.6 1.6 0.00 0.00 0.00 64 1098.2
20260507042656 16 172 1.6 3.2 0.00 0.00 0.00 64 1098.1
20260507042150 16 179 1.6 1.6 0.00 0.00 0.00 64 1098.1
20260507041648 16 197 0.0 1.6 0.00 0.00 0.00 63 1098.3
20260507041144 16 217 1.6 3.2 0.00 0.00 0.00 63 1098.1
20260507040642 16 171 1.6 3.2 0.00 0.00 0.00 62 1098.0
20260507040138 16 168 1.6 4.8 0.00 0.00 0.00 61 1098.0
20260507035634 17 151 1.6 3.2 0.00 0.00 0.00 61 1098.1
20260507035130 17 223 1.6 4.8 0.00 0.00 0.00 61 1097.8
20260507034627 17 221 1.6 4.8 0.00 0.00 0.00 61 1097.8
20260507034124 17 217 3.2 6.4 0.00 0.00 0.00 61 1097.8
20260507033623 17 228 1.6 4.8 0.00 0.00 0.00 60 1097.8
20260507033119 17 155 1.6 3.2 0.00 0.00 0.00 60 1097.6
20260507032617 17 218 0.0 3.2 0.00 0.00 0.00 60 1097.5
20260507032113 17 230 3.2 4.8 0.00 0.00 0.00 59 1097.4
20260507031610 17 218 3.2 3.2 0.00 0.00 0.00 58 1097.5
20260507031106 18 213 3.2 3.2 0.00 0.00 0.00 57 1097.4
20260507030603 18 193 1.6 4.8 0.00 0.00 0.00 57 1097.5
20260507030101 18 186 1.6 3.2 0.00 0.00 0.00 56 1097.3
20260507025558 18 203 3.2 4.8 0.00 0.00 0.00 54 1097.0
20260507025055 19 161 4.8 6.4 0.00 0.00 0.00 48 1097.0
20260507024553 20 171 0.0 1.6 0.00 0.00 0.00 47 1097.0
20260507024049 20 249 3.2 9.7 0.00 0.00 0.00 47 1096.9
20260507023545 20 228 3.2 12.9 0.00 0.00 0.00 47 1097.0
20260507023043 20 236 3.2 4.8 0.00 0.00 0.00 45 1096.7
20260507022539 20 196 3.2 4.8 0.00 0.00 0.00 44 1096.8
20260507022034 20 275 4.8 11.3 0.00 0.00 0.00 44 1096.6
20260507021531 21 284 4.8 6.4 0.00 0.00 0.00 43 1096.7
20260507021028 21 274 9.7 12.9 0.00 0.00 0.00 43 1096.7
20260507020525 21 231 8.0 12.9 0.00 0.00 0.00 43 1096.4
20260507020021 22 258 6.4 16.1 0.00 0.00 0.00 42 1096.6
20260507015520 22 261 6.4 12.9 0.00 0.00 0.00 41 1096.6
20260507015017 22 241 8.0 9.7 0.00 0.00 0.00 39 1096.3
20260507014513 22 326 4.8 11.3 0.00 0.00 0.00 39 1096.3
20260507014009 22 283 4.8 9.7 0.00 0.00 0.00 38 1096.5
20260507013506 23 279 4.8 11.3 0.00 0.00 0.00 37 1096.3
20260507013004 23 272 9.7 12.9 0.00 0.00 0.00 37 1096.3
20260507012500 23 320 9.7 12.9 0.00 0.00 0.00 36 1096.3
20260507011957 23 290 3.2 11.3 0.00 0.00 0.00 36 1096.4
20260507011454 23 316 3.2 9.7 0.00 0.00 0.00 36 1096.2
20260507010949 23 250 11.3 14.5 0.00 0.00 0.00 36 1096.4
20260507010444 23 303 6.4 11.3 0.00 0.00 0.00 36 1096.3
20260507005941 23 269 6.4 9.7 0.00 0.00 0.00 36 1096.2
20260507005439 23 271 3.2 4.8 0.00 0.00 0.00 35 1096.3
20260507004935 24 296 8.0 12.9 0.00 0.00 0.00 34 1096.3
20260507004432 24 249 6.4 12.9 0.00 0.00 0.00 35 1096.2
20260507003929 24 288 8.0 12.9 0.00 0.00 0.00 34 1096.0
20260507003424 24 195 6.4 12.9 0.00 0.00 0.00 35 1096.3
20260507002920 24 254 6.4 12.9 0.00 0.00 0.00 35 1096.1
20260507002416 24 278 6.4 11.3 0.00 0.00 0.00 34 1095.9
20260507001913 24 286 4.8 11.3 0.00 0.00 0.00 35 1095.9
20260507001410 24 280 4.8 9.7 0.00 0.00 0.00 37 1096.0
20260507000908 24 266 6.4 12.9 0.00 0.00 0.00 36 1095.9
20260507000405 25 293 6.4 11.3 0.00 0.00 0.00 36 1096.0
20260506235859 25 261 6.4 11.3 0.00 0.00 0.00 35 1095.9
20260506235356 25 260 6.4 9.7 0.00 0.00 0.00 34 1095.6
20260506234851 25 285 8.0 20.9 0.00 0.00 0.00 34 1095.9
20260506234350 25 311 3.2 11.3 0.00 0.00 0.00 34 1095.7
20260506233847 25 230 4.8 11.3 0.00 0.00 0.00 36 1095.7
20260506233343 25 255 6.4 12.9 0.00 0.00 0.00 35 1095.6
20260506232840 25 299 6.4 14.5 0.00 0.00 0.00 35 1095.7
20260506232336 25 245 9.7 14.5 0.00 0.00 0.00 35 1095.6
20260506231832 25 258 9.7 11.3 0.00 0.00 0.00 34 1095.7
20260506231330 25 275 1.6 4.8 0.00 0.00 0.00 35 1095.9
20260506230827 25 266 8.0 11.3 0.00 0.00 0.00 34 1096.1
20260506230324 25 225 6.4 11.3 0.00 0.00 0.00 35 1096.0
20260506225820 25 299 6.4 12.9 0.00 0.00 0.00 34 1095.9
20260506225318 25 211 9.7 12.9 0.00 0.00 0.00 34 1095.7
20260506224814 25 237 8.0 14.5 0.00 0.00 0.00 34 1096.0
20260506224312 25 268 6.4 11.3 0.00 0.00 0.00 34 1096.0
20260506223808 26 238 3.2 11.3 0.00 0.00 0.00 32 1096.0
20260506223304 26 235 6.4 14.5 0.00 0.00 0.00 33 1096.0
20260506222801 26 257 6.4 14.5 0.00 0.00 0.00 35 1096.1
20260506222256 26 252 8.0 16.1 0.00 0.00 0.00 33 1096.1
20260506221754 26 183 3.2 11.3 0.00 0.00 0.00 34 1096.2
20260506221252 26 250 3.2 9.7 0.00 0.00 0.00 33 1096.2
20260506220750 26 256 6.4 9.7 0.00 0.00 0.00 33 1096.3
20260506220249 26 269 8.0 11.3 0.00 0.00 0.00 33 1096.2
20260506215747 26 251 9.7 12.9 0.00 0.00 0.00 33 1096.4
20260506215242 26 170 1.6 9.7 0.00 0.00 0.00 34 1096.5
20260506214739 26 285 4.8 6.4 0.00 0.00 0.00 32 1096.7
20260506214236 26 245 6.4 12.9 0.00 0.00 0.00 34 1096.7
20260506213734 25 248 6.4 14.5 0.00 0.00 0.00 35 1096.5
20260506213231 25 172 1.6 3.2 0.00 0.00 0.00 32 1096.7
20260506212729 25 214 1.6 11.3 0.00 0.00 0.00 33 1096.8
20260506212224 25 155 3.2 9.7 0.00 0.00 0.00 31 1097.1
20260506211719 25 161 1.6 3.2 0.00 0.00 0.00 31 1096.7
20260506211216 25 201 0.0 6.4 0.00 0.00 0.00 34 1096.9
20260506210713 25 186 3.2 12.9 0.00 0.00 0.00 32 1096.9
20260506210210 25 275 4.8 6.4 0.00 0.00 0.00 33 1097.1
20260506205707 25 258 4.8 9.7 0.00 0.00 0.00 33 1096.9
20260506205202 25 161 4.8 14.5 0.00 0.00 0.00 32 1096.8
20260506204659 25 257 1.6 3.2 0.00 0.00 0.00 34 1097.0
20260506204156 25 269 3.2 9.7 0.00 0.00 0.00 38 1097.1
20260506203655 25 204 1.6 9.7 0.00 0.00 0.00 34 1097.3
20260506203152 25 96 8.0 12.9 0.00 0.00 0.00 33 1097.3
20260506202650 25 211 4.8 11.3 0.00 0.00 0.00 35 1097.4
20260506202145 25 234 4.8 11.3 0.00 0.00 0.00 34 1097.3
20260506201642 25 222 0.0 9.7 0.00 0.00 0.00 36 1097.5
20260506201138 24 240 3.2 11.3 0.00 0.00 0.00 34 1097.5
20260506200635 24 306 4.8 9.7 0.00 0.00 0.00 36 1097.5
20260506200132 23 357 4.8 6.4 0.00 0.00 0.00 38 1097.6
20260506195629 23 208 1.6 3.2 0.00 0.00 0.00 34 1097.5
20260506195125 24 107 4.8 6.4 0.00 0.00 0.00 37 1097.6
20260506194623 24 309 4.8 4.8 0.00 0.00 0.00 32 1097.8
20260506194119 24 227 4.8 6.4 0.00 0.00 0.00 38 1097.9
20260506193617 24 264 9.7 14.5 0.00 0.00 0.00 34 1097.9
20260506193114 23 221 3.2 6.4 0.00 0.00 0.00 38 1097.7
20260506192611 23 202 1.6 6.4 0.00 0.00 0.00 36 1097.9
20260506192106 23 256 8.0 11.3 0.00 0.00 0.00 38 1098.0
20260506191603 23 189 1.6 4.8 0.00 0.00 0.00 37 1097.9
20260506191059 23 182 1.6 9.7 0.00 0.00 0.00 37 1098.1
20260506190557 23 208 3.2 11.3 0.00 0.00 0.00 37 1098.1
20260506190053 23 106 3.2 9.7 0.00 0.00 0.00 34 1098.2
20260506185551 23 248 4.8 9.7 0.00 0.00 0.00 40 1098.3
20260506185047 23 255 6.4 9.7 0.00 0.00 0.00 35 1098.1
20260506184545 23 240 3.2 6.4 0.00 0.00 0.00 40 1098.5
20260506184042 23 116 4.8 4.8 0.00 0.00 0.00 37 1098.4
20260506183537 23 193 0.0 4.8 0.00 0.00 0.00 41 1098.5
20260506183034 22 205 6.4 12.9 0.00 0.00 0.00 39 1098.4
20260506182532 22 229 1.6 3.2 0.00 0.00 0.00 37 1098.4
20260506182029 22 252 0.0 1.6 0.00 0.00 0.00 38 1098.7
20260506181527 22 148 6.4 9.7 0.00 0.00 0.00 40 1098.7
20260506181023 22 187 1.6 9.7 0.00 0.00 0.00 37 1098.7
20260506180520 22 118 3.2 6.4 0.00 0.00 0.00 38 1098.7
20260506180016 22 221 3.2 6.4 0.00 0.00 0.00 40 1098.7
20260506175513 22 219 4.8 6.4 0.00 0.00 0.00 44 1098.5
20260506175009 22 105 8.0 11.3 0.00 0.00 0.00 39 1098.5
20260506174508 22 223 0.0 4.8 0.00 0.00 0.00 39 1098.8
20260506174004 21 220 3.2 11.3 0.00 0.00 0.00 41 1098.7
20260506173502 21 237 6.4 6.4 0.00 0.00 0.00 42 1098.4
20260506172958 22 304 3.2 12.9 0.00 0.00 0.00 45 1098.5
20260506172456 21 244 3.2 6.4 0.00 0.00 0.00 41 1098.7
20260506171952 21 154 0.0 3.2 0.00 0.00 0.00 43 1098.4
20260506171449 21 169 0.0 1.6 0.00 0.00 0.00 40 1098.7
20260506170947 21 256 3.2 6.4 0.00 0.00 0.00 42 1098.5
20260506170444 21 239 6.4 9.7 0.00 0.00 0.00 43 1098.5
20260506165942 21 236 6.4 12.9 0.00 0.00 0.00 44 1098.5
20260506165440 20 237 3.2 4.8 0.00 0.00 0.00 44 1098.3
20260506164930 20 235 4.8 6.4 0.00 0.00 0.00 45 1098.4
20260506164427 20 265 6.4 11.3 0.00 0.00 0.00 43 1098.5
20260506163920 21 134 1.6 9.7 0.00 0.00 0.00 43 1098.5
20260506163420 21 234 1.6 3.2 0.00 0.00 0.00 43 1098.5
20260506162915 21 252 3.2 3.2 0.00 0.00 0.00 41 1098.4
20260506162413 21 232 8.0 11.3 0.00 0.00 0.00 44 1098.7
20260506161910 21 232 6.4 6.4 0.00 0.00 0.00 43 1098.4
20260506161408 21 209 6.4 6.4 0.00 0.00 0.00 43 1098.4
20260506160905 21 239 3.2 4.8 0.00 0.00 0.00 42 1098.2
20260506160402 21 250 3.2 9.7 0.00 0.00 0.00 44 1098.2
20260506155900 20 214 1.6 3.2 0.00 0.00 0.00 48 1098.2
20260506155356 20 232 3.2 6.4 0.00 0.00 0.00 46 1098.2
20260506153514 18 179 0.0 6.4 0.00 0.00 0.00 50 1098.2
20260506153011 18 227 3.2 4.8 0.00 0.00 0.00 48 1098.2
20260506152508 18 247 3.2 6.4 0.00 0.00 0.00 49 1098.3
20260506152006 18 187 4.8 9.7 0.00 0.00 0.00 49 1098.1
20260506151503 18 280 3.2 6.4 0.00 0.00 0.00 51 1098.2
20260506151001 18 210 0.0 4.8 0.00 0.00 0.00 52 1098.2
20260506150456 17 266 6.4 6.4 0.00 0.00 0.00 59 1098.1
20260506145954 16 228 1.6 6.4 0.00 0.00 0.00 56 1098.2
20260506145450 16 238 4.8 4.8 0.00 0.00 0.00 62 1098.0
20260506144948 16 209 1.6 3.2 0.00 0.00 0.00 63 1098.3
20260506144444 16 189 1.6 4.8 0.00 0.00 0.00 65 1098.2
20260506143942 15 231 3.2 4.8 0.00 0.00 0.00 67 1098.3
20260506143439 15 235 3.2 6.4 0.00 0.00 0.00 69 1098.3
20260506142937 14 223 1.6 1.6 0.00 0.00 0.00 72 1098.2
20260506142435 13 179 3.2 4.8 0.00 0.00 0.00 73 1098.0
20260506141933 13 207 1.6 1.6 0.00 0.00 0.00 74 1098.1
20260506141430 13 148 0.0 0.0 0.00 0.00 0.00 80 1098.1
20260506140929 11 146 0.0 1.6 0.00 0.00 0.00 86 1097.9
20260506140425 11 146 0.0 1.6 0.00 0.00 0.00 86 1097.9
20260506135922 10 144 0.0 1.6 0.00 0.00 0.00 90 1097.9
20260506135420 9 216 0.0 1.6 0.00 0.00 0.00 91 1097.8
20260506134915 8 222 1.6 3.2 0.00 0.00 0.00 91 1097.9
20260506134412 8 160 0.0 3.2 0.00 0.00 0.00 93 1097.7
20260506133909 7 155 0.0 1.6 0.00 0.00 0.00 93 1097.6
20260506133406 7 182 1.6 3.2 0.00 0.00 0.00 93 1097.8
20260506132902 7 164 0.0 1.6 0.00 0.00 0.00 93 1097.7
20260506132359 7 229 3.2 3.2 0.00 0.00 0.00 93 1097.6
20260506131858 7 150 1.6 1.6 0.00 0.00 0.00 94 1097.7
20260506131353 7 156 3.2 3.2 0.00 0.00 0.00 93 1097.6
20260506130851 7 167 0.0 1.6 0.00 0.00 0.00 94 1097.5
20260506130347 7 226 1.6 3.2 0.00 0.00 0.00 94 1097.4
20260506125845 7 219 1.6 3.2 0.00 0.00 0.00 94 1097.3
20260506125343 7 194 1.6 3.2 0.00 0.00 0.00 94 1097.5
20260506124841 7 201 1.6 3.2 0.00 0.00 0.00 94 1097.5
20260506124338 7 206 3.2 4.8 0.00 0.00 0.00 94 1097.4
20260506123836 7 201 1.6 3.2 0.00 0.00 0.00 94 1097.3
20260506123334 7 219 3.2 3.2 0.00 0.00 0.00 94 1097.1
20260506122831 7 212 1.6 3.2 0.00 0.00 0.00 94 1097.1
20260506122327 7 218 1.6 3.2 0.00 0.00 0.00 93 1097.1
20260506121826 7 157 1.6 4.8 0.00 0.00 0.00 93 1097.3
20260506121322 7 178 1.6 3.2 0.00 0.00 0.00 93 1097.0
20260506120820 7 205 3.2 3.2 0.00 0.00 0.00 92 1097.4
20260506120318 7 179 1.6 1.6 0.00 0.00 0.00 92 1097.3
20260506115815 7 161 1.6 3.2 0.00 0.00 0.00 93 1097.3
20260506115313 7 192 1.6 3.2 0.00 0.00 0.00 93 1097.3
20260506114810 7 240 3.2 3.2 0.00 0.00 0.00 92 1097.1
20260506114308 7 184 0.0 1.6 0.00 0.00 0.00 92 1097.1
20260506113806 7 209 1.6 4.8 0.00 0.00 0.00 92 1097.3
20260506113303 7 215 3.2 4.8 0.00 0.00 0.00 92 1097.3
20260506112637 7 216 1.6 4.8 0.00 0.00 0.00 91 1097.3
20260506112135 7 216 1.6 4.8 0.00 0.00 0.00 91 1097.3
20260506111633 7 240 3.2 4.8 0.00 0.00 0.00 91 1097.1
20260506111130 7 218 3.2 4.8 0.00 0.00 0.00 90 1097.0
20260506110628 7 191 3.2 3.2 0.00 0.00 0.00 91 1097.0
20260506110125 7 194 3.2 6.4 0.00 0.00 0.00 91 1096.9
20260506105621 7 202 3.2 4.8 0.00 0.00 0.00 90 1096.9
20260506105118 7 212 3.2 6.4 0.00 0.00 0.00 90 1097.0
20260506104617 8 235 4.8 6.4 0.00 0.00 0.00 90 1097.1
20260506104114 8 205 3.2 6.4 0.00 0.00 0.00 90 1097.0
20260506103611 8 201 4.8 4.8 0.00 0.00 0.00 90 1096.9
20260506103108 8 191 4.8 6.4 0.00 0.00 0.00 90 1096.9
20260506102606 7 218 4.8 6.4 0.00 0.00 0.00 89 1097.1
20260506102017 7 241 3.2 4.8 0.00 0.00 0.00 89 1097.0
20260506101513 7 241 3.2 4.8 0.00 0.00 0.00 89 1097.0
20260506101011 8 196 3.2 3.2 0.00 0.00 0.00 89 1096.9
20260506100509 7 234 3.2 6.4 0.00 0.00 0.00 89 1096.9
20260506100007 8 223 4.8 4.8 0.00 0.00 0.00 88 1097.0
20260506095505 8 235 3.2 4.8 0.00 0.00 0.00 89 1097.0
20260506095001 8 228 4.8 4.8 0.00 0.00 0.00 89 1097.0
20260506094459 8 207 4.8 4.8 0.00 0.00 0.00 89 1096.9
20260506093956 8 195 3.2 4.8 0.00 0.00 0.00 89 1097.1
20260506093454 8 203 3.2 3.2 0.00 0.00 0.00 88 1097.0
20260506092952 8 190 1.6 3.2 0.00 0.00 0.00 87 1096.9
20260506092450 8 241 3.2 6.4 0.00 0.00 0.00 87 1096.8
20260506091946 8 216 3.2 6.4 0.00 0.00 0.00 87 1096.9
20260506091444 8 242 3.2 6.4 0.00 0.00 0.00 86 1097.1
20260506090941 8 234 3.2 6.4 0.00 0.00 0.00 85 1097.1
20260506090439 8 198 4.8 4.8 0.00 0.00 0.00 85 1097.3